Bettles, AK

5:29 AM AKDT on July 20, 2019 (GMT -0800)
Bettles

Weather History for PABT - May, 2019

Change the Weather History Date:

Friday, May 3, 2019

  Actual Average Record
Temperature  
Mean Temperature 30 °F -  
Max Temperature 35 °F 43 °F 62 °F (2014)
Min Temperature 25 °F 26 °F -10 °F (1952)
Degree Days  
Heating Degree Days 35    
Moisture  
Dew Point 19 °F    
Average Humidity 67    
Maximum Humidity 85    
Minimum Humidity 37    
Precipitation  
Precipitation 0.02 in - - ()
Snow  
Snow 0.00 in - - ()
Snow Depth 30.00 in    
Sea Level Pressure  
Sea Level Pressure 30.14 in    
Wind  
Wind Speed 7 mph (East)    
Max Wind Speed 10 mph    
Max Gust Speed -    
Visibility 6 miles    
Events Snow    
Averages and records for this station are not official NWS values.
T = Trace of Precipitation, MM = Missing Value Source: NWS Daily Summary

Daily Weather History Graph

Daily Weather History Graph

Search for Another Location

Airport or City:

Astronomy

May. 03, 2019 Rise Set
Actual Time 5:06 AM AKDT 11:02 PM AKDT
Civil Twilight 3:26 AM AKDT 12:47 AM AKDT
Nautical Twilight Sun does not set Sun does not set
Astronomical Twilight Sun does not set Sun does not set
Moon 6:14 AM AKDT (5/3) 8:56 PM AKDT (5/3)
Length of Visible Light 21h 21m
Length of Day
17h 56m
Waning Crescent, 1% of the Moon is Illuminated
May 3
Waning Crescent
May 4
New
May 11
First Quarter
May 18
Full
May 26
Last Quarter

Hourly Weather History & Observations

Time (AKDT) Temp. Windchill Dew Point Humidity Pressure Visibility Wind Dir Wind Speed Gust Speed Precip Events Conditions
12:53 AM 32.0 °F 23.6 °F 15.1 °F 50% 30.03 in 10.0 mi NE 10.4 mph - N/A   Overcast
1:53 AM 30.9 °F 25.2 °F 14.0 °F 50% 30.04 in 10.0 mi ENE 5.8 mph - N/A   Overcast
2:53 AM 30.0 °F 21.7 °F 12.9 °F 49% 30.05 in 10.0 mi ENE 9.2 mph - N/A   Overcast
3:53 AM 28.9 °F 21.1 °F 12.9 °F 51% 30.07 in 10.0 mi NE 8.1 mph - N/A   Overcast
4:53 AM 28.0 °F 20.8 °F 10.9 °F 49% 30.08 in 10.0 mi ENE 6.9 mph - N/A   Overcast
5:53 AM 28.0 °F 21.7 °F 10.9 °F 49% 30.10 in 10.0 mi NE 5.8 mph - N/A   Overcast
6:53 AM 28.0 °F 24.2 °F 12.0 °F 51% 30.12 in 10.0 mi ENE 3.5 mph - N/A   Overcast
7:53 AM 28.9 °F - 12.9 °F 51% 30.13 in 10.0 mi Calm Calm - N/A   Overcast
8:53 AM 27.0 °F 19.5 °F 16.0 °F 63% 30.14 in 10.0 mi SE 6.9 mph - N/A   Overcast
9:50 AM 26.6 °F 18.2 °F 19.4 °F 74% 30.11 in 1.8 mi ESE 8.1 mph - N/A Snow Light Snow
9:53 AM 26.1 °F 17.6 °F 19.0 °F 75% 30.16 in 1.5 mi ESE 8.1 mph - N/A Snow Light Snow
10:00 AM 25.0 °F 19.3 °F 19.9 °F 81% 30.12 in 1.0 mi ESE 4.6 mph - 0.00 in Snow Light Snow
10:25 AM 25.0 °F 17.1 °F 21.0 °F 85% 30.12 in 1.0 mi ESE 6.9 mph - 0.01 in Snow Light Snow
10:53 AM 25.0 °F 17.1 °F 21.0 °F 85% 30.17 in 1.5 mi SE 6.9 mph - 0.02 in Snow Light Snow
11:15 AM 25.0 °F 15.5 °F 21.0 °F 85% 30.13 in 2.0 mi SE 9.2 mph - 0.00 in Snow Light Snow
11:53 AM 26.1 °F 18.4 °F 19.9 °F 78% 30.18 in 3.0 mi ESE 6.9 mph - 0.00 in Snow Light Snow
12:53 PM 27.0 °F 21.6 °F 21.0 °F 78% 30.19 in 2.0 mi SE 4.6 mph - 0.01 in Snow Light Snow
1:00 PM 27.0 °F 23.0 °F 21.0 °F 78% 30.14 in 2.0 mi SE 3.5 mph - 0.00 in Snow Light Snow
1:53 PM 28.0 °F 22.8 °F 21.9 °F 78% 30.19 in 4.0 mi ESE 4.6 mph - 0.01 in Snow Light Snow
2:00 PM 28.0 °F 21.7 °F 21.9 °F 78% 30.14 in 4.0 mi East 5.8 mph - 0.00 in Snow Light Snow
2:53 PM 30.0 °F - 23.0 °F 75% 30.18 in 4.0 mi Calm Calm - 0.01 in Snow Light Snow
3:51 PM 30.2 °F 24.3 °F 23.0 °F 75% 30.13 in 3.0 mi SE 5.8 mph - N/A Snow Light Snow
3:53 PM 30.0 °F 25.2 °F 23.0 °F 75% 30.17 in 3.0 mi Variable 4.6 mph - N/A Snow Light Snow
4:24 PM 30.9 °F 25.2 °F 21.0 °F 67% 30.13 in 4.0 mi ESE 5.8 mph - 0.00 in Snow Light Snow
4:53 PM 30.9 °F 23.5 °F 19.0 °F 61% 30.17 in 6.0 mi ESE 8.1 mph - 0.00 in Snow Light Snow
5:53 PM 30.9 °F 24.3 °F 19.9 °F 64% 30.17 in 5.0 mi ESE 6.9 mph - 0.00 in Snow Light Snow
6:53 PM 32.0 °F 27.5 °F 19.0 °F 59% 30.17 in 7.0 mi East 4.6 mph - N/A Snow Light Snow
7:53 PM 32.0 °F 27.5 °F 23.0 °F 69% 30.17 in 5.0 mi Variable 4.6 mph - 0.00 in Snow Light Snow
8:53 PM 30.9 °F 26.2 °F 23.0 °F 72% 30.17 in 6.0 mi ENE 4.6 mph - 0.00 in Snow Light Snow
9:53 PM 30.9 °F 25.2 °F 23.0 °F 72% 30.17 in 8.0 mi NNE 5.8 mph - N/A   Overcast
10:53 PM 30.0 °F 22.4 °F 21.9 °F 72% 30.17 in 10.0 mi NE 8.1 mph - N/A   Overcast
11:53 PM 30.0 °F 23.2 °F 21.9 °F 72% 30.18 in 10.0 mi NE 6.9 mph - N/A   Overcast